This demonstration page uses our WeatherBlox Daily Observations layout. Learn more.

Left ArrowRight Arrow

Hourly Observations for November 19, 2018

Temp ( °F °C ) Dew Point ( °F °C ) Humidity (%) Winds ( mph kmh ) Pressure ( in mb ) Visibility ( mi km ) Precip ( " mm )
12:50 am 00:50 Cloudy with Light Rain 41 5 37 3 87 87 N 3 6 30.15 1021 4 6 N/A
12:53 am 00:53 Cloudy with Light Rain 41 5 37 2.8 86 86 N 3 6 30.16 1021 4 6 N/A
1:03 am 01:03 Cloudy with Light Rain 41 5 37 2.8 86 86 N 3 6 30.15 1021 4 6 N/A
1:53 am 01:53 Cloudy with Light Rain 40 4.4 37 2.8 89 89 N N/A 30.14 1021 4 6 0.01 0.25
2:03 am 02:03 Cloudy with Light Rain 40 4.4 37 2.8 89 89 N N/A 30.12 1020 3 5 0.01 0.25
2:53 am 02:53 Cloudy with Light Rain 40 4.4 38 3.3 93 93 N 3 6 30.14 1021 3 5 0.03 0.76
3:00 am 03:00 Cloudy with Light Rain 40 4.4 38 3.3 93 93 NNW 5 7 30.15 1021 3 5 N/A
3:11 am 03:11 Cloudy with Light Rain 40 4.4 38 3.3 93 93 NW 7 11 30.15 1021 3 4 0.01 0.25
3:48 am 03:48 Cloudy with Rain 39 4 37 3 93 93 NNE 3 6 30.12 1020 3 4 0.04 1.02
3:53 am 03:53 Cloudy with Light Rain 40 4.4 38 3.3 93 93 NE 3 6 30.13 1020 3 4 0.05 1.27
4:06 am 04:06 Cloudy with Light Rain 40 4.4 38 3.3 93 93 N 3 6 30.12 1020 3 5 N/A
4:27 am 04:27 Cloudy with Rain 40 4.4 38 3.3 93 93 NE 3 6 30.12 1020 3 4 0.02 0.51
4:37 am 04:37 Cloudy with Light Rain 40 4.4 38 3.3 93 93 E 5 7 30.12 1020 3 5 0.03 0.76
4:53 am 04:53 Cloudy with Light Rain 40 4.4 38 3.3 93 93 ENE 5 7 30.11 1020 3 5 0.03 0.76
5:13 am 05:13 Cloudy with Light Rain 40 4.4 38 3.3 93 93 ENE 6 9 30.09 1019 4 6 N/A
5:29 am 05:29 Cloudy with Light Rain 40 4.4 38 3.3 93 93 NNE 3 6 30.09 1019 4 6 N/A
5:44 am 05:44 Cloudy with Heavy Rain 40 4.4 37 2.8 89 89 NNW 3 6 30.12 1020 2 3 0.04 1.02
5:53 am 05:53 Cloudy with Rain 40 4.4 38 3.3 93 93 N N/A 30.12 1020 2 3 0.06 1.52
6:14 am 06:14 Cloudy with Rain 40 4.4 38 3.3 93 93 ENE 3 6 30.09 1019 3 5 0.03 0.76
6:19 am 06:19 Cloudy with Light Rain 40 4.4 38 3.3 93 93 ENE 5 7 30.09 1019 3 5 0.04 1.02
6:53 am 06:53 Cloudy with Rain 40 4.4 37 2.8 89 89 NE 3 6 30.10 1019 3 5 0.09 2.29
7:18 am 07:18 Cloudy with Rain 40 4.4 37 2.8 89 89 NNE 5 7 30.09 1019 3 5 0.03 0.76
7:53 am 07:53 Cloudy with Rain 40 4.4 37 2.8 89 89 ENE 5 7 30.09 1019 4 6 0.05 1.27
8:19 am 08:19 Cloudy with Rain 40 4.4 37 2.8 89 89 NE 3 6 30.09 1019 2 3 0.04 1.02
8:53 am 08:53 Cloudy with Light Rain 40 4.4 37 2.8 89 89 E 5 7 30.08 1019 3 5 0.08 2.03
9:13 am 09:13 Cloudy with Rain 40 4.4 37 2.8 89 89 NE 6 9 30.09 1019 3 4 0.02 0.51
9:26 am 09:26 Cloudy with Light Rain 40 4.4 37 2.8 89 89 ENE 6 9 30.09 1019 3 5 0.03 0.76
9:41 am 09:41 Cloudy with Light Rain 40 4.4 37 2.8 89 89 E 3 6 30.09 1019 3 4 0.04 1.02
9:53 am 09:53 Cloudy with Light Rain 40 4.4 38 3.3 93 93 ENE 3 6 30.08 1019 3 4 0.05 1.27
10:05 am 10:05 Cloudy with Light Rain 40 4.4 38 3.3 93 93 ENE 3 6 30.09 1019 3 5 0.01 0.25
10:53 am 10:53 Cloudy 41 5 39 3.9 93 93 N N/A 30.06 1018 7 11 0.01 0.25
11:13 am 11:13 Cloudy with Light Rain 41 5 39 3.9 93 93 N N/A 30.09 1019 8 13 N/A
11:23 am 11:23 Cloudy with Light Rain 41 5 39 3.9 93 93 N N/A 30.06 1018 6 10 0.01 0.25
11:53 am 11:53 Cloudy with Light Rain 42 5.6 39 3.9 89 89 N N/A 30.04 1017 8 13 0.01 0.25
12:53 pm 12:53 Cloudy with Light Rain 41 5 39 3.9 93 93 NNW 5 7 30.03 1017 4 6 N/A
1:53 pm 13:53 Cloudy with Mist and Fog 42 5.6 39 3.9 89 89 NNW 3 6 30.01 1016 4 6 N/A
2:46 pm 14:46 Cloudy with Mist and Fog 42 5.6 40 4.4 92 92 NW 5 7 30.03 1017 4 6 N/A
2:53 pm 14:53 Cloudy with Mist and Fog 42 5.6 40 4.4 92 92 NW 6 9 30.01 1016 5 8 N/A
3:53 pm 15:53 Cloudy 42 5.6 39 3.9 89 89 WNW 6 9 30.01 1016 7 11 N/A
4:09 pm 16:09 Cloudy 42 5.6 39 3.9 89 89 NW 7 11 30.03 1017 7 11 N/A
4:53 pm 16:53 Cloudy 42 5.6 39 3.9 89 89 N N/A 30.03 1017 7 11 N/A
5:53 pm 17:53 Cloudy 42 5.6 39 3.9 89 89 W 5 7 30.04 1017 9 14 N/A
6:17 pm 18:17 Cloudy 42 5.6 39 3.9 89 89 W 6 9 30.06 1018 10 16 N/A
6:29 pm 18:29 Cloudy 42 5.6 39 3.9 89 89 W 5 7 30.06 1018 9 14 N/A
6:53 pm 18:53 Cloudy 41 5 39 3.9 93 93 WNW 8 13 30.06 1018 7 11 N/A
7:41 pm 19:41 Cloudy 41 5 38 3.3 89 89 WNW 7 11 30.09 1019 10 16 N/A
7:53 pm 19:53 Cloudy 41 5 38 3.3 89 89 W 5 7 30.07 1018 9 14 N/A
8:09 pm 20:09 Cloudy 41 5 38 3.3 89 89 W 6 9 30.09 1019 10 16 N/A
8:42 pm 20:42 Cloudy 41 5 37 2.8 86 86 WNW 7 11 30.09 1019 10 16 N/A
8:53 pm 20:53 Cloudy 41 5 37 2.8 86 86 WNW 7 11 30.07 1018 10 16 N/A
9:53 pm 21:53 Cloudy 40 4.4 37 2.8 89 89 WNW 5 7 30.08 1019 9 14 N/A
10:53 pm 22:53 Cloudy 40 4.4 36 2.2 86 86 WNW 3 6 30.07 1018 9 14 N/A
11:37 pm 23:37 Cloudy 40 4.4 36 2.2 86 86 WNW 5 7 30.09 1019 8 13 N/A
11:53 pm 23:53 Cloudy 40 4.4 36 2.2 86 86 W 5 7 30.08 1019 8 13 N/A

Powered by AerisWeather